Погода в Остроленском

Россия / Челябинская область     53°41′03″N   59°43′29″E
В апреле 2022 года жителям России запретили посещать сайт meteo.paraplan.net по решению Генеральной прокуратуры. Аудитория сайта уменьшилась в 10 раз. Владельцы сайта не видят смысла в поддержке погодного сервера в таких условиях. Сайт будет закрыт в октябре.
темп.,
°C
ветер,
м/с
пор.,
м/с
влажн.,
%
обл.,
%
осадки,
мм/ч
давл.,
гПа
погр.,
м
30 сентября, пт
пт3023:000юв4899100 2.6 1028293
02:00−1юв5997100 0.9 1029440
05:000юв4995100 1.6 1030430
08:00−1вюв4896100 0.2 1031436
11:000юв5892100 0.4 1032533
14:00+1юв468699 0.1 1033624
17:00+3ююв268694 0.2 1033662
20:00+1ссз119491 0.0 103412
1 октября, сб
сб123:00+1вюв129096 0.0 103446
02:00+1ююв2683100 0.0 1035171
05:00+1ю278198 0.0 1035276
08:00+1ю287899 0.0 1035348
11:00+3ю3774100 0.0 1035587
14:00+4ю4775100 0.0 1035699
17:00+3ю3874100 0.0 1034402
20:00+2ююз2676100 0.0 1034211
2 октября, вс
вс223:00+2ююз387579 0.0 1033241
02:00+2ююз3107399 0.0 1032285
05:00+2ююз4107297 0.0 1032253
08:00+3ю41073100 0.0 1031325
11:00+5ююз51059100 0.0 1031445
14:00+6ююз595597 0.0 1030471
17:00+6ю41059100 0.0 1030410
20:00+3ю387127 0.0 1030155
3 октября, пн
пн323:00+4ююз397092 0.0 1029212
02:00+4ююз396498 0.0 1028228
05:00+4ююз396283 0.0 1028201
08:00+4ююз396085 0.0 1028184
11:00+9ююз5843100 0.0 1028359
14:00+10ююз5738100 0.0 1028451
17:00+10юз4641100 0.0 1028453
20:00+6ююз36575 0.0 103096
4 октября, вт
вт423:00+5юз35585 0.0 103176
02:00+4юз34615 0.0 103153
05:00+4юз33633 0.0 103239
08:00+4юз33615 0.0 103350
11:00+10ююз33415 0.0 1033333
14:00+14ююз34330 0.0 1033797
17:00+13ююз33350 0.0 1033401
20:00+7зюз12574 0.0 103510